Weather in Bedford

United States     42°56′47″N   71°30′58″W
temp.,
°C
wind,
m/s
gust,
m/s
humid.,
%
clouds,
%
prec.,
mm/h
press.,
hPa
HPBL,
m
26 may, thu
thu2623:00+12s278180 0.0 1027202
02:00+10s2586100 0.0 1027123
05:00+9s237887 0.0 102784
08:00+13ssw3654100 0.0 1027351
11:00+19s5839100 0.0 10251126
14:00+22ssw693399 0.0 10221693
17:00+21ssw5941100 0.0 10201499
20:00+17ssw5116163 0.0 1019828
27 may, fri
fri2723:00+14ssw4137956 0.0 1019696
02:00+15sw4148727 0.0 1017681
05:00+14ssw279780 0.0 1016245
08:00+19ssw41284100 0.0 1015952
11:00+22ssw51175100 0.1 10131142
14:00+26sw61159100 0.1 10111376
17:00+24sw51078100 0.4 1010981
20:00+20sw41295100 3.6 1011761
28 may, sat
sat2823:00+19ssw31396100 0.6 1010807
02:00+18ssw41195100 0.6 1009974
05:00+18ssw3994100 0.1 1007724
08:00+18s31094100 0.1 1007827
11:00+20ssw4987100 0.3 1006909
14:00+25sw4856100 0.3 10041378
17:00+23wsw4868100 0.3 10041026
20:00+17nnw26955 2.4 1006164
29 may, sun
sun2923:00+16nw4119063 0.0 1009426
02:00+13nw299316 0.0 1010247
05:00+10nw239461 0.0 101248
08:00+15nnw36735 0.0 1015425
11:00+22n12455 0.0 10151251
14:00+26nnw12325 0.0 10151884
17:00+25w12305 0.0 10141957
20:00+18nw006191 0.0 101611
30 may, mon
mon3023:00+15ssw117432 0.0 101714
02:00+14wnw1168100 0.0 101711
05:00+14w1166100 0.0 101717
08:00+18wnw2569100 0.0 1017161
11:00+21nw1364100 0.2 1017369
14:00+25w255139 0.4 1015974
17:00+23ne2568100 0.0 1013165
20:00+20nne1178100 0.0 101414